User: anonymous   Login
Location: McDonald Observatory
(30.6717°N, 104.0221°W)
Time: 16:11:39
(UTC-05:00)
Language:

Cosmos 1484 Rocket - Orbit

View from above orbital plane
View from above orbital plane
View from above satellite
View from above satellite

Ground track
Ground track

The orbit data is extracted from the following two-line orbital elements,

1 14208U 83075B   18113.52005838  .00000149  00000-0  12574-4 0  9990
2 14208  97.3440 116.4071 0040294 138.3781 222.0528 15.10667122894355
Epoch (UTC): 23 April 2018 12:28:53
Eccentricity: 0.0040294
inclination: 97.3440°
perigee height: 506 km
apogee height: 562 km
right ascension of ascending node: 116.4071°
argument of perigee: 138.3781°
revolutions per day: 15.10667122
mean anomaly at epoch: 222.0528°
orbit number at epoch: 89435

The dashed part of the orbit path shows where the satellite is in the earth's shadow,  

DLR